Location: A�t Bou Chrif
(32.7193°N, 5.2385°W)
Time: 00:19:06
(UTC+00:00)

SJ-6B - Pass Details

Date: 08 August 2020
Orbit: 509 x 582 km, 97.6° (Epoch: 18 September)

Event Time Altitude Azimuth Distance (km) Brightness Sun altitude
Exits shadow 19:57:21 - 151° (SSE) 2,110 5.3 -9.5°
Reaches altitude 10° 19:57:55 10° 150° (SSE) 1,884 5.0 -9.6°
Maximum altitude 20:01:51 48° 75° (ENE) 749 3.2 -10.4°
Drops below altitude 10° 20:05:46 10° 1° (N) 1,869 5.9 -11.1°
Sets 20:07:57 0° 356° (N) 2,759 6.9 -11.5°
